Location: Rounton
(54.4000°N, 1.3500°W)
Time: 07:51:43
(UTC+00:00)

Tiros 1 despin weight - Pass Details

Date: 02 December 2021
Orbit: 592 x 641 km, 48.2° (Epoch: 19 January)

Event Time Altitude Azimuth Distance (km) Brightness Sun altitude
Rises 19:52:23 0° 269° (W) 2,829 ? -34.7°
Enters shadow 19:56:18 10° 234° (SW) 1,957 ? -35.3°
Reaches altitude 10° 19:56:36 10° 230° (SW) 1,930 - -35.3°
Maximum altitude 19:57:30 11° 218° (SW) 1,894 - -35.5°
Drops below altitude 10° 19:58:25 10° 206° (SSW) 1,931 - -35.6°
Sets 20:02:39 0° 168° (SSE) 2,841 - -36.2°
